SWA3499 KMSY-KHOU

Flight info

Callsign SWA3499
Flight time 0h 58m
Altitude 32000
Route KCEEE BAYYY5
Aircraft B737/M-SDE2E3FGHIRWXY/LB1

Departure

Time 2026-05-05 02:50
Airport Louis Armstrong New Orleans International Airport (KMSY)

Arrival

Time 2026-05-05 03:48
Airport William P. Hobby Airport (KHOU)
Time Latitude Longitude Altitude Speed Heading
2026-05-05 02:28 29.99411 -90.25740 5 ft 0 kts 99°
2026-05-05 02:40 29.99413 -90.25752 5 ft 4 kts 102°
2026-05-05 02:40 29.99418 -90.25782 6 ft 4 kts 99°
2026-05-05 02:40 29.99427 -90.25810 5 ft 4 kts 138°
2026-05-05 02:41 29.99447 -90.25819 5 ft 3 kts 192°
2026-05-05 02:41 29.99455 -90.25817 5 ft 0 kts 194°
2026-05-05 02:43 29.99447 -90.25819 5 ft 3 kts 194°
2026-05-05 02:43 29.99412 -90.25829 4 ft 7 kts 194°
2026-05-05 02:43 29.99364 -90.25847 2 ft 7 kts 206°
2026-05-05 02:44 29.99343 -90.25896 2 ft 8 kts 273°
2026-05-05 02:44 29.99356 -90.25960 2 ft 9 kts 285°
2026-05-05 02:44 29.99373 -90.26030 2 ft 9 kts 285°
2026-05-05 02:44 29.99389 -90.26098 4 ft 9 kts 286°
2026-05-05 02:45 29.99405 -90.26165 6 ft 8 kts 286°
2026-05-05 02:45 29.99422 -90.26232 8 ft 9 kts 285°
2026-05-05 02:45 29.99441 -90.26308 7 ft 10 kts 285°
2026-05-05 02:45 29.99461 -90.26392 7 ft 11 kts 285°
2026-05-05 02:46 29.99482 -90.26479 11 ft 11 kts 285°
2026-05-05 02:46 29.99503 -90.26565 10 ft 11 kts 285°
2026-05-05 02:46 29.99524 -90.26648 10 ft 11 kts 285°
2026-05-05 02:46 29.99543 -90.26729 9 ft 11 kts 285°
2026-05-05 02:47 29.99565 -90.26819 12 ft 12 kts 285°
2026-05-05 02:47 29.99589 -90.26918 11 ft 14 kts 285°
2026-05-05 02:47 29.99618 -90.27037 8 ft 17 kts 285°
2026-05-05 02:47 29.99654 -90.27186 6 ft 21 kts 286°
2026-05-05 02:48 29.99694 -90.27346 5 ft 21 kts 286°
2026-05-05 02:48 29.99732 -90.27502 3 ft 20 kts 285°
2026-05-05 02:48 29.99750 -90.27595 3 ft 8 kts 275°
2026-05-05 02:48 29.99725 -90.27654 3 ft 10 kts 218°
2026-05-05 02:49 29.99657 -90.27687 0 ft 11 kts 199°
2026-05-05 02:49 29.99586 -90.27709 -1 ft 10 kts 179°
2026-05-05 02:49 29.99541 -90.27660 -1 ft 10 kts 110°
2026-05-05 02:49 29.99506 -90.27526 1 ft 42 kts 105°
2026-05-05 02:50 29.99368 -90.26949 7 ft 107 kts 105°
2026-05-05 02:50 29.99118 -90.25931 105 ft 146 kts 108°
2026-05-05 02:50 29.98827 -90.24773 591 ft 157 kts 107°
2026-05-05 02:50 29.98520 -90.23516 1071 ft 171 kts 109°
2026-05-05 02:51 29.98189 -90.22137 1568 ft 185 kts 110°
2026-05-05 02:51 29.97563 -90.20809 2051 ft 195 kts 137°
2026-05-05 02:51 29.96390 -90.19985 2563 ft 205 kts 166°
2026-05-05 02:51 29.94976 -90.19890 3274 ft 208 kts 191°
2026-05-05 02:52 29.93570 -90.20444 3856 ft 220 kts 202°
2026-05-05 02:52 29.92154 -90.21204 4518 ft 228 kts 212°
2026-05-05 02:52 29.90915 -90.22389 5160 ft 236 kts 231°
2026-05-05 02:52 29.90066 -90.23983 5861 ft 241 kts 249°
2026-05-05 02:53 29.89545 -90.25888 6402 ft 255 kts 258°
2026-05-05 02:53 29.89170 -90.27889 7254 ft 255 kts 260°
2026-05-05 02:53 29.88838 -90.29891 8171 ft 255 kts 262°
2026-05-05 02:53 29.88515 -90.31917 9058 ft 259 kts 263°
2026-05-05 02:54 29.88190 -90.34003 9818 ft 268 kts 263°
2026-05-05 02:54 29.87838 -90.36146 10560 ft 276 kts 263°
2026-05-05 02:54 29.87459 -90.38339 11359 ft 280 kts 262°
2026-05-05 02:54 29.87085 -90.40545 12244 ft 282 kts 264°
2026-05-05 02:55 29.86664 -90.42732 13122 ft 286 kts 256°
2026-05-05 02:55 29.86021 -90.44916 13971 ft 290 kts 256°
2026-05-05 02:55 29.85348 -90.47135 14712 ft 295 kts 255°
2026-05-05 02:55 29.84660 -90.49376 15527 ft 298 kts 255°
2026-05-05 02:56 29.83948 -90.51638 16308 ft 304 kts 255°
2026-05-05 02:56 29.83222 -90.53951 17074 ft 308 kts 256°
2026-05-05 02:56 29.82517 -90.56294 17852 ft 312 kts 256°
2026-05-05 02:56 29.81811 -90.58659 18678 ft 312 kts 256°
2026-05-05 02:57 29.81105 -90.61013 19476 ft 311 kts 257°
2026-05-05 02:57 29.80395 -90.63383 20236 ft 313 kts 258°
2026-05-05 02:57 29.79685 -90.65760 20954 ft 316 kts 258°
2026-05-05 02:57 29.78968 -90.68166 21669 ft 319 kts 258°
2026-05-05 02:58 29.78490 -90.69766 22149 ft 320 kts 259°
2026-05-05 02:58 29.77762 -90.72208 22859 ft 323 kts 259°
2026-05-05 02:58 29.77032 -90.74659 23576 ft 326 kts 259°
2026-05-05 02:58 29.76293 -90.77134 24146 ft 329 kts 260°
2026-05-05 02:59 29.75546 -90.79635 24698 ft 332 kts 260°
2026-05-05 02:59 29.74792 -90.82157 25285 ft 334 kts 260°
2026-05-05 02:59 29.74029 -90.84708 25880 ft 337 kts 260°
2026-05-05 02:59 29.73265 -90.87259 26458 ft 339 kts 260°
2026-05-05 03:00 29.72492 -90.89840 27023 ft 342 kts 260°
2026-05-05 03:00 29.71711 -90.92445 27560 ft 345 kts 261°
2026-05-05 03:00 29.70925 -90.95062 28111 ft 348 kts 261°
2026-05-05 03:00 29.70132 -90.97703 28658 ft 351 kts 261°
2026-05-05 03:01 29.69330 -91.00366 29200 ft 353 kts 261°
2026-05-05 03:01 29.68521 -91.03048 29721 ft 356 kts 261°
2026-05-05 03:01 29.67717 -91.05718 30201 ft 359 kts 261°
2026-05-05 03:01 29.66884 -91.08481 30665 ft 361 kts 261°
2026-05-05 03:02 29.66071 -91.11175 31133 ft 362 kts 261°
2026-05-05 03:02 29.65243 -91.13914 31606 ft 363 kts 261°
2026-05-05 03:02 29.64413 -91.16657 31992 ft 365 kts 261°
2026-05-05 03:03 29.62719 -91.22281 32026 ft 381 kts 261°
2026-05-05 03:03 29.60943 -91.28165 32038 ft 396 kts 260°
2026-05-05 03:04 29.59108 -91.34203 32034 ft 407 kts 260°
2026-05-05 03:04 29.57233 -91.40329 32022 ft 405 kts 260°
2026-05-05 03:05 29.55365 -91.46435 32023 ft 405 kts 259°
2026-05-05 03:05 29.53491 -91.52538 32022 ft 404 kts 259°
2026-05-05 03:06 29.51622 -91.58626 32008 ft 403 kts 259°
2026-05-05 03:06 29.49770 -91.64666 32016 ft 403 kts 259°
2026-05-05 03:07 29.47912 -91.70720 32008 ft 403 kts 259°
2026-05-05 03:07 29.46048 -91.76778 32010 ft 402 kts 259°
2026-05-05 03:08 29.44177 -91.82846 32009 ft 403 kts 259°
2026-05-05 03:08 29.42305 -91.88908 32002 ft 403 kts 259°
2026-05-05 03:09 29.40431 -91.94969 31998 ft 402 kts 259°
2026-05-05 03:09 29.38567 -92.01014 31997 ft 402 kts 259°
2026-05-05 03:10 29.36703 -92.07029 31999 ft 403 kts 259°
2026-05-05 03:10 29.34819 -92.13086 31997 ft 403 kts 259°
2026-05-05 03:11 29.32931 -92.19142 31994 ft 403 kts 259°
2026-05-05 03:11 29.31040 -92.25200 31994 ft 403 kts 259°
2026-05-05 03:12 29.29148 -92.31249 31980 ft 403 kts 259°
2026-05-05 03:12 29.27265 -92.37260 31991 ft 403 kts 259°
2026-05-05 03:13 29.25367 -92.43309 31991 ft 403 kts 259°
2026-05-05 03:13 29.24429 -92.49427 31992 ft 383 kts 279°
2026-05-05 03:14 29.24912 -92.55481 31986 ft 382 kts 281°
2026-05-05 03:14 29.25425 -92.61553 31988 ft 383 kts 280°
2026-05-05 03:15 29.25909 -92.67642 31976 ft 384 kts 280°
2026-05-05 03:15 29.26378 -92.73757 31987 ft 385 kts 279°
2026-05-05 03:16 29.26838 -92.79848 31985 ft 387 kts 279°
2026-05-05 03:16 29.27299 -92.85998 31988 ft 387 kts 279°
2026-05-05 03:17 29.27759 -92.92154 31986 ft 388 kts 279°
2026-05-05 03:17 29.28217 -92.98327 31983 ft 389 kts 279°
2026-05-05 03:18 29.28679 -93.04496 31982 ft 389 kts 279°
2026-05-05 03:18 29.29160 -93.10669 31973 ft 389 kts 279°
2026-05-05 03:19 29.29879 -93.19914 31976 ft 389 kts 279°
2026-05-05 03:19 29.30354 -93.26090 31971 ft 389 kts 279°
2026-05-05 03:20 29.30822 -93.32230 31977 ft 389 kts 279°
2026-05-05 03:20 29.31290 -93.38411 31978 ft 389 kts 279°
2026-05-05 03:21 29.31755 -93.44584 31974 ft 389 kts 279°
2026-05-05 03:21 29.32217 -93.50760 31978 ft 388 kts 279°
2026-05-05 03:22 29.32676 -93.56934 31974 ft 388 kts 279°
2026-05-05 03:22 29.32904 -93.60016 31810 ft 390 kts 279°
2026-05-05 03:22 29.33131 -93.63079 31572 ft 389 kts 279°
2026-05-05 03:23 29.33357 -93.66165 31328 ft 388 kts 279°
2026-05-05 03:23 29.33582 -93.69239 31092 ft 386 kts 279°
2026-05-05 03:23 29.33806 -93.72302 30858 ft 385 kts 279°
2026-05-05 03:23 29.34028 -93.75357 30620 ft 384 kts 279°
2026-05-05 03:24 29.34250 -93.78404 30396 ft 383 kts 279°
2026-05-05 03:24 29.34471 -93.81454 30158 ft 383 kts 279°
2026-05-05 03:24 29.34691 -93.84484 29846 ft 381 kts 279°
2026-05-05 03:24 29.34906 -93.87496 29270 ft 376 kts 279°
2026-05-05 03:25 29.35106 -93.90462 28578 ft 373 kts 278°
2026-05-05 03:25 29.35273 -93.93418 27969 ft 369 kts 278°
2026-05-05 03:25 29.35428 -93.96343 27381 ft 365 kts 277°
2026-05-05 03:25 29.35579 -93.99230 26798 ft 361 kts 277°
2026-05-05 03:26 29.35728 -94.02049 26253 ft 357 kts 277°
2026-05-05 03:26 29.35880 -94.04879 25705 ft 354 kts 277°
2026-05-05 03:26 29.36031 -94.07682 25154 ft 351 kts 277°
2026-05-05 03:26 29.36183 -94.10474 24601 ft 349 kts 277°
2026-05-05 03:27 29.36332 -94.13247 24047 ft 347 kts 277°
2026-05-05 03:27 29.36482 -94.16012 23488 ft 346 kts 277°
2026-05-05 03:27 29.36629 -94.18757 22887 ft 344 kts 277°
2026-05-05 03:27 29.36774 -94.21477 22318 ft 340 kts 277°
2026-05-05 03:28 29.36917 -94.24169 21782 ft 337 kts 277°
2026-05-05 03:28 29.37079 -94.26854 21066 ft 339 kts 277°
2026-05-05 03:28 29.37256 -94.29534 20496 ft 337 kts 277°
2026-05-05 03:28 29.37431 -94.32206 19965 ft 334 kts 277°
2026-05-05 03:29 29.37601 -94.34853 19449 ft 332 kts 277°
2026-05-05 03:29 29.37763 -94.37405 19196 ft 321 kts 278°
2026-05-05 03:29 29.37996 -94.39961 18679 ft 321 kts 279°
2026-05-05 03:29 29.38271 -94.42503 18154 ft 321 kts 280°
2026-05-05 03:30 29.38551 -94.45040 17612 ft 319 kts 279°
2026-05-05 03:30 29.38825 -94.47555 17101 ft 317 kts 279°
2026-05-05 03:30 29.39092 -94.50054 16613 ft 315 kts 279°
2026-05-05 03:30 29.39354 -94.52542 16129 ft 313 kts 279°
2026-05-05 03:31 29.39612 -94.55011 15649 ft 311 kts 279°
2026-05-05 03:31 29.39868 -94.57469 15168 ft 310 kts 279°
2026-05-05 03:31 29.40122 -94.59917 14697 ft 309 kts 279°
2026-05-05 03:31 29.40371 -94.62332 14226 ft 308 kts 279°
2026-05-05 03:32 29.40623 -94.64778 13724 ft 309 kts 279°
2026-05-05 03:32 29.41039 -94.67176 13161 ft 307 kts 290°
2026-05-05 03:32 29.41846 -94.69432 12678 ft 305 kts 294°
2026-05-05 03:32 29.42697 -94.71661 12187 ft 304 kts 294°
2026-05-05 03:33 29.43543 -94.73879 11709 ft 303 kts 294°
2026-05-05 03:33 29.44380 -94.76097 11231 ft 302 kts 293°
2026-05-05 03:33 29.45207 -94.78313 10758 ft 302 kts 293°
2026-05-05 03:33 29.46020 -94.80506 10513 ft 293 kts 292°
2026-05-05 03:34 29.46804 -94.82633 10321 ft 283 kts 292°
2026-05-05 03:34 29.47556 -94.84676 10189 ft 272 kts 292°
2026-05-05 03:34 29.48278 -94.86639 10067 ft 262 kts 292°
2026-05-05 03:34 29.48972 -94.88536 9894 ft 255 kts 292°
2026-05-05 03:35 29.49658 -94.90426 9691 ft 258 kts 292°
2026-05-05 03:35 29.50354 -94.92352 9482 ft 263 kts 291°
2026-05-05 03:35 29.51051 -94.94284 9257 ft 267 kts 291°
2026-05-05 03:35 29.51763 -94.96256 9028 ft 267 kts 291°
2026-05-05 03:36 29.52475 -94.98227 8806 ft 267 kts 291°
2026-05-05 03:36 29.53186 -95.00197 8564 ft 267 kts 291°
2026-05-05 03:36 29.53896 -95.02166 8343 ft 266 kts 291°
2026-05-05 03:36 29.54603 -95.04126 8120 ft 265 kts 291°
2026-05-05 03:37 29.55307 -95.06078 7897 ft 264 kts 291°
2026-05-05 03:37 29.56007 -95.08021 7678 ft 262 kts 291°
2026-05-05 03:37 29.56702 -95.09951 7462 ft 261 kts 291°
2026-05-05 03:37 29.57395 -95.11877 7250 ft 260 kts 291°
2026-05-05 03:38 29.58085 -95.13803 7043 ft 259 kts 290°
2026-05-05 03:38 29.58580 -95.15771 6901 ft 254 kts 281°
2026-05-05 03:38 29.58914 -95.17759 6774 ft 253 kts 279°
2026-05-05 03:38 29.59231 -95.19738 6660 ft 255 kts 279°
2026-05-05 03:39 29.59564 -95.21751 6536 ft 258 kts 280°
2026-05-05 03:39 29.59911 -95.23781 6414 ft 256 kts 280°
2026-05-05 03:39 29.60256 -95.25754 6268 ft 248 kts 280°
2026-05-05 03:39 29.60592 -95.27659 6156 ft 237 kts 280°
2026-05-05 03:40 29.60909 -95.29457 6035 ft 222 kts 280°
2026-05-05 03:40 29.61231 -95.31170 5775 ft 215 kts 281°
2026-05-05 03:40 29.61568 -95.32786 5654 ft 203 kts 281°
2026-05-05 03:40 29.61894 -95.34350 5360 ft 200 kts 280°
2026-05-05 03:41 29.62217 -95.35904 5039 ft 200 kts 280°
2026-05-05 03:41 29.62539 -95.37457 4716 ft 199 kts 280°
2026-05-05 03:41 29.63023 -95.38948 4349 ft 204 kts 306°
2026-05-05 03:41 29.63983 -95.40066 4250 ft 190 kts 309°
2026-05-05 03:42 29.64897 -95.41156 3922 ft 190 kts 308°
2026-05-05 03:42 29.65809 -95.42253 3573 ft 189 kts 307°
2026-05-05 03:42 29.66641 -95.43399 3293 ft 185 kts 301°
2026-05-05 03:42 29.67478 -95.44499 2987 ft 190 kts 320°
2026-05-05 03:43 29.68779 -95.44946 2602 ft 200 kts
2026-05-05 03:43 29.70078 -95.44504 2319 ft 197 kts 24°
2026-05-05 03:43 29.71321 -95.43822 2028 ft 200 kts 38°
2026-05-05 03:43 29.72448 -95.42890 2014 ft 202 kts 42°
2026-05-05 03:44 29.73539 -95.41880 1997 ft 201 kts 48°
2026-05-05 03:44 29.74171 -95.40605 1976 ft 171 kts 98°
2026-05-05 03:44 29.73782 -95.39460 2029 ft 152 kts 139°
2026-05-05 03:44 29.73104 -95.38494 2004 ft 154 kts 137°
2026-05-05 03:45 29.72431 -95.37556 1994 ft 150 kts 137°
2026-05-05 03:45 29.71827 -95.36566 1932 ft 153 kts 132°
2026-05-05 03:45 29.71412 -95.35907 1791 ft 152 kts 139°
2026-05-05 03:45 29.70696 -95.35085 1617 ft 141 kts 144°
2026-05-05 03:46 29.69996 -95.34305 1408 ft 138 kts 143°
2026-05-05 03:46 29.69344 -95.33544 1243 ft 128 kts 140°
2026-05-05 03:46 29.68748 -95.32840 1037 ft 117 kts 140°
2026-05-05 03:46 29.68212 -95.32212 880 ft 105 kts 139°
2026-05-05 03:47 29.67650 -95.31574 755 ft 124 kts 137°
2026-05-05 03:47 29.67052 -95.30849 636 ft 126 kts 138°
2026-05-05 03:47 29.66429 -95.30131 492 ft 128 kts 138°
2026-05-05 03:47 29.65820 -95.29395 346 ft 125 kts 138°
2026-05-05 03:48 29.65203 -95.28675 171 ft 127 kts 137°
2026-05-05 03:48 29.64605 -95.27964 52 ft 116 kts 137°
2026-05-05 03:48 29.64160 -95.27446 51 ft 60 kts 134°
2026-05-05 03:48 29.64001 -95.27259 51 ft 16 kts 135°
2026-05-05 03:49 29.63939 -95.27159 51 ft 15 kts 111°
2026-05-05 03:49 29.63921 -95.27044 51 ft 15 kts 92°
2026-05-05 03:49 29.63925 -95.26932 51 ft 13 kts 90°
2026-05-05 03:49 29.63935 -95.26851 48 ft 8 kts 28°
2026-05-05 03:50 29.63992 -95.26857 51 ft 8 kts 353°
2026-05-05 03:50 29.64047 -95.26862 51 ft 8 kts
2026-05-05 03:50 29.64101 -95.26861 51 ft 8 kts
2026-05-05 03:50 29.64156 -95.26879 49 ft 9 kts 322°
2026-05-05 03:51 29.64203 -95.26941 50 ft 12 kts 309°
2026-05-05 03:51 29.64261 -95.27021 49 ft 14 kts 311°
2026-05-05 03:51 29.64332 -95.27116 51 ft 17 kts 310°
2026-05-05 03:51 29.64393 -95.27225 51 ft 16 kts 297°
2026-05-05 03:52 29.64460 -95.27322 51 ft 15 kts 313°
2026-05-05 03:52 29.64533 -95.27408 49 ft 15 kts 314°
2026-05-05 03:52 29.64604 -95.27489 51 ft 14 kts 323°
2026-05-05 03:52 29.64695 -95.27513 47 ft 13 kts 359°
2026-05-05 03:53 29.64786 -95.27516 48 ft 13 kts 359°
2026-05-05 03:53 29.64875 -95.27518 48 ft 13 kts 359°
2026-05-05 03:53 29.64961 -95.27520 51 ft 12 kts 359°
2026-05-05 03:53 29.65045 -95.27523 51 ft 12 kts 359°
2026-05-05 03:54 29.65102 -95.27576 49 ft 12 kts 275°
2026-05-05 03:54 29.65100 -95.27667 51 ft 11 kts 268°
2026-05-05 03:54 29.65098 -95.27757 51 ft 11 kts 268°
2026-05-05 03:54 29.65096 -95.27843 51 ft 11 kts 268°
2026-05-05 03:55 29.65123 -95.27919 49 ft 10 kts 311°
2026-05-05 03:55 29.65173 -95.27977 51 ft 10 kts 324°
2026-05-05 03:55 29.65240 -95.27993 51 ft 10 kts
2026-05-05 03:55 29.65298 -95.27962 51 ft 9 kts 45°
2026-05-05 03:56 29.65327 -95.27902 48 ft 8 kts 68°
2026-05-05 03:56 29.65345 -95.27850 49 ft 6 kts 73°
2026-05-05 03:56 29.65334 -95.27817 48 ft 4 kts 147°
2026-05-05 03:56 29.65317 -95.27807 51 ft 2 kts 155°
2026-05-05 03:57 29.65305 -95.27801 51 ft 1 kts 156°
2026-05-05 03:57 29.65303 -95.27800 51 ft 0 kts 157°